Wind_Speed
13 15 16 17 17 16 15 15 15 15 15 14 13 10 7 4 3 5 11 10 6 3 3 4 4 3 1 1 0 1 0 1 1 2 2 1 1 1 1 0 0 1 1 1 1 1 1 1 0 0 1 0 1 2 4 3 1 0 1 2 2 1 2 1 4 4 4 5 3 3 2 2 3 2 3 2 2 2 5 4 3 1 2 0 1 1 2
14 15 16 16 15 15 15 15 16 17 16 15 14 10 6 4 4 6 11 11 5 3 2 2 2 2 1 1 2 1 1 1 1 1 2 2 1 1 0 0 0 1 1 1 1 2 0 1 0 0 1 1 1 3 4 3 1 1 1 1 3 2 0 2 3 4 5 6 5 5 4 3 2 2 4 3 4 4 2 1 2 0 1 2 2 2 3
14 15 15 15 14 15 15 15 16 16 16 15 14 10 5 3 3 5 10 13 9 6 3 3 3 0 1 2 2 2 1 2 2 1 1 2 1 1 1 1 1 2 1 0 2 1 1 1 1 2 1 1 1 3 4 3 1 2 1 2 2 1 2 2 2 0 1 2 3 3 3 3 2 3 6 5 5 5 1 1 4 1 2 3 2 3 2
14 14 14 14 14 14 14 15 16 15 15 13 12 11 6 3 2 3 7 12 14 11 6 4 3 2 2 2 2 2 1 2 2 1 1 2 1 1 1 2 1 2 3 2 3 3 1 1 1 2 2 3 2 3 4 3 3 3 3 2 1 1 0 1 4 5 4 4 5 4 1 2 2 4 8 7 5 5 4 4 2 1 2 3 2 2 2
13 13 13 13 13 14 14 15 15 14 13 12 11 10 6 3 2 2 3 6 9 10 9 8 4 2 2 2 1 2 2 2 2 1 1 2 2 1 0 2 1 1 3 2 2 4 3 2 1 1 1 3 3 3 3 3 4 4 3 3 2 3 2 2 2 3 5 5 3 2 4 4 4 4 6 7 7 8 9 5 1 1 3 3 3 3 5
12 12 12 13 13 14 14 13 13 13 12 11 10 9 7 3 1 2 2 2 2 4 7 8 6 4 2 2 1 2 3 3 1 1 2 2 2 1 1 3 2 1 1 1 1 4 4 3 1 0 2 3 3 4 2 2 5 5 4 3 3 4 1 2 1 3 6 4 1 7 9 7 6 6 6 7 8 9 8 3 0 3 3 3 4 6 5
12 12 12 13 13 13 13 12 12 11 11 10 9 8 6 4 3 2 3 1 1 1 4 4 5 5 3 2 1 2 1 2 2 1 2 3 2 2 1 4 4 3 2 1 0 2 2 3 3 0 1 3 2 3 2 2 6 6 4 3 2 3 1 2 1 2 6 6 4 8 10 7 7 8 6 5 6 6 5 1 1 1 1 1 4 6 3
12 12 13 13 12 12 12 12 11 11 10 9 9 8 6 5 3 1 3 3 2 2 3 2 3 3 4 2 1 0 1 2 3 1 2 2 2 2 1 5 6 3 1 3 1 2 2 2 4 2 0 2 1 1 1 1 6 7 3 2 3 2 2 2 3 3 5 5 5 7 8 9 9 7 6 6 7 6 5 3 3 3 2 3 5 4 3
12 12 12 12 12 11 11 11 10 10 10 8 8 8 6 5 4 2 3 2 4 3 2 2 3 2 3 2 1 1 0 1 2 1 0 1 1 1 2 5 5 3 2 4 1 2 2 3 4 2 1 2 1 1 0 1 4 6 3 2 3 3 2 3 5 4 3 1 5 5 6 8 9 8 8 7 8 6 4 3 3 2 2 4 5 4 3
12 12 12 12 12 11 11 11 11 10 10 9 8 7 6 5 4 3 2 2 4 4 2 3 4 1 2 1 1 1 1 2 1 0 1 1 0 2 3 2 2 2 2 1 1 2 2 2 1 1 1 1 0 1 2 4 3 2 1 2 2 2 2 2 3 2 3 2 2 4 3 4 3 4 7 3 4 7 5 1 3 3 1 2 3 4 5
12 12 12 12 13 13 12 12 12 11 10 9 8 7 6 5 4 3 3 3 4 5 3 3 3 1 1 3 2 1 2 4 2 1 1 1 0 4 4 1 0 1 0 1 2 2 2 2 3 3 4 5 7 6 6 8 7 4 1 1 1 2 3 0 1 1 3 5 2 2 3 2 4 0 5 3 3 8 9 2 3 4 3 1 3 5 7
12 13 13 14 14 14 14 14 13 12 11 10 9 7 6 5 4 4 3 3 2 5 4 2 2 1 3 5 3 2 2 4 2 0 1 2 1 3 4 1 1 0 1 2 3 4 7 7 6 5 7 8 9 10 11 10 9 9 8 3 1 3 3 0 1 2 3 4 5 4 1 3 5 3 8 7 1 5 8 1 4 4 4 3 5 7 8
13 14 14 14 14 14 14 14 14 13 12 11 10 9 7 6 5 4 4 5 1 3 3 2 1 3 4 5 4 2 2 3 3 2 2 2 1 3 4 3 1 1 2 4 1 5 5 4 4 3 4 4 5 8 10 8 8 12 14 8 2 1 2 1 1 2 1 3 4 1 3 1 1 1 8 10 4 5 8 2 2 2 4 5 6 8 11
14 14 15 15 15 14 14 14 14 13 13 12 11 10 8 7 6 4 4 4 1 2 2 1 2 5 5 6 6 4 3 2 2 2 1 2 2 2 4 5 3 3 3 2 1 4 2 2 3 2 4 4 3 3 4 5 6 10 12 11 7 3 2 2 2 1 2 1 2 2 1 2 3 3 7 8 5 5 7 4 2 2 6 7 8 9 13
14 15 15 15 16 15 15 15 14 14 13 12 11 11 9 7 6 4 4 4 4 3 4 2 3 6 6 5 6 5 3 3 3 2 2 2 1 1 5 7 5 3 4 2 2 2 1 1 2 3 3 2 1 1 1 2 3 7 10 13 12 7 4 3 2 1 2 3 2 3 2 3 1 2 8 11 10 10 8 5 2 4 9 11 11 11 16
14 15 16 16 16 16 16 15 15 14 14 13 12 11 9 8 7 5 4 3 4 2 5 5 4 5 5 4 4 5 3 3 3 3 3 3 1 1 6 8 6 4 4 2 1 2 3 1 1 1 0 1 1 0 1 1 2 4 9 12 12 10 6 5 4 3 3 3 1 1 3 3 1 4 10 14 16 15 7 2 2 4 12 15 14 14 17
15 15 16 16 16 16 16 15 15 14 14 13 12 12 10 9 8 6 4 4 5 4 5 7 4 3 5 3 3 4 4 4 3 2 2 4 2 3 8 9 5 4 5 4 1 3 4 2 2 2 1 2 1 1 1 2 2 6 9 8 9 8 5 5 5 3 1 1 0 2 2 2 1 7 12 16 17 12 5 1 4 6 16 20 18 17 19
14 15 15 15 15 15 15 15 14 14 13 13 12 12 11 9 8 7 5 4 5 6 7 9 7 5 5 4 3 4 5 5 3 2 4 2 2 6 10 8 4 4 5 3 2 3 3 2 2 3 0 3 2 3 1 2 2 4 5 4 4 4 3 3 4 2 2 1 1 4 2 2 5 12 15 17 15 6 2 2 7 13 21 22 20 20 19
14 14 15 15 15 15 15 14 14 13 13 12 12 11 11 10 9 8 6 4 7 8 8 11 12 9 8 7 5 5 6 6 5 4 2 1 6 12 9 2 5 6 5 3 3 2 3 2 1 2 2 3 2 3 2 2 1 2 3 3 3 3 3 3 2 1 3 0 1 4 2 1 9 16 13 12 9 2 2 7 13 19 22 20 19 19 19
13 14 14 14 14 14 14 14 14 13 12 13 13 12 12 12 11 9 7 6 14 17 14 14 15 14 14 13 11 10 9 8 7 5 1 2 10 14 5 1 6 8 5 5 3 1 2 2 2 1 3 2 1 3 2 2 2 1 1 2 1 1 1 3 2 1 2 2 2 4 3 2 12 14 7 6 5 2 7 13 15 16 18 18 18 18 18
13 13 13 14 14 14 14 14 14 14 13 13 13 12 12 12 10 11 9 6 11 17 16 15 16 16 16 16 16 14 12 11 9 7 5 4 9 10 3 1 6 6 2 2 2 0 1 1 1 2 1 1 2 2 2 2 2 3 2 3 1 1 2 1 3 1 2 1 1 1 1 5 13 10 2 3 4 5 9 12 14 16 17 18 19 19 20
13 13 13 13 13 13 13 13 13 13 13 13 13 13 13 13 12 13 11 7 12 19 18 16 18 19 18 17 16 15 13 12 11 11 8 6 7 9 5 2 5 5 3 4 2 0 2 1 1 2 2 1 2 2 2 3 1 3 2 3 1 1 1 3 4 1 1 4 4 2 4 9 10 6 4 6 7 9 11 14 17 19 17 17 20 23 26
13 13 13 13 13 13 13 13 13 13 13 13 13 14 14 14 14 14 11 9 18 25 21 16 16 18 18 18 16 15 15 14 12 12 11 7 6 8 9 8 6 5 5 6 3 1 1 2 2 3 2 1 2 3 3 2 1 1 2 2 2 2 6 3 2 3 5 5 4 5 8 12 10 4 6 12 13 15 19 20 18 16 15 18 22 25 28
13 13 13 13 13 13 13 13 13 14 13 13 13 14 15 14 13 12 9 8 13 17 17 16 17 17 17 18 17 16 16 15 13 12 13 11 7 7 8 8 7 5 6 7 5 2 2 2 2 3 2 1 2 3 2 2 1 2 2 2 1 4 10 6 1 3 4 2 1 6 12 19 15 7 9 18 21 21 22 19 15 14 17 21 23 24 27
13 13 13 13 13 13 13 13 13 13 13 13 12 13 14 14 12 11 10 8 8 10 10 12 16 17 16 17 17 17 16 15 14 13 13 13 12 9 8 8 8 8 8 7 6 6 6 4 3 4 3 1 2 2 1 1 2 2 2 1 2 5 8 5 1 2 3 5 6 11 18 21 14 8 15 23 23 20 18 15 14 18 20 22 23 25 27
13 13 13 13 13 13 13 12 13 13 13 12 12 12 13 13 12 11 10 8 9 11 10 8 11 17 18 17 17 17 16 15 15 14 14 13 12 11 9 7 6 8 9 10 9 9 9 7 4 3 2 2 3 2 2 2 3 3 2 1 3 5 5 2 1 3 5 7 8 14 16 12 6 10 20 23 19 17 16 16 18 22 24 25 26 26 26
13 13 13 13 13 13 13 13 12 13 12 11 13 14 13 14 14 12 10 8 6 7 7 5 7 14 18 18 17 16 15 14 14 14 14 12 11 11 10 8 5 5 6 7 8 10 9 7 5 3 2 4 6 5 3 4 5 4 2 1 2 3 2 1 2 3 3 3 7 11 9 6 9 17 22 19 16 16 17 19 23 25 26 27 28 28 27
13 12 13 13 13 13 13 13 13 12 11 11 13 15 15 16 16 14 13 12 8 8 12 12 9 10 12 15 17 16 14 13 13 13 13 12 12 12 12 12 9 7 5 6 7 8 7 5 3 2 3 4 5 4 3 4 4 2 1 1 2 2 2 2 2 3 6 8 11 13 11 12 16 20 19 16 16 17 18 22 25 27 27 28 29 30 29
12 12 13 13 14 13 14 14 14 14 11 9 10 12 15 18 17 15 15 14 11 11 18 18 12 8 9 12 14 14 14 13 12 12 12 12 12 12 12 12 11 10 9 11 12 10 8 6 5 5 3 2 2 2 2 2 2 0 2 2 1 3 5 7 7 8 10 13 16 17 16 16 18 19 17 15 15 17 20 24 26 28 28 27 27 26 26
12 12 13 13 14 13 13 14 16 15 13 10 8 8 11 15 16 15 14 13 10 8 12 12 7 7 10 13 13 12 12 12 11 11 11 11 12 12 11 11 10 9 10 12 12 9 7 6 6 6 4 3 3 3 2 2 1 2 4 5 3 5 8 9 10 10 12 15 18 20 20 19 19 17 14 12 15 19 23 26 28 28 27 25 25 24 23
11 12 12 13 13 13 13 14 16 16 15 14 12 8 6 8 11 12 13 12 9 8 10 11 9 6 7 12 14 12 10 9 9 8 9 10 10 10 10 10 9 9 11 13 11 8 6 5 4 4 4 4 4 3 3 3 1 3 5 7 5 7 10 10 11 13 16 17 19 20 20 18 17 14 11 13 18 21 24 26 28 27 24 23 23 22 21
11 11 11 12 12 12 12 14 15 14 14 16 17 15 11 9 10 11 12 12 10 6 6 8 7 3 2 6 12 14 10 8 7 6 6 7 8 7 8 9 9 8 9 9 8 6 5 5 5 5 5 4 3 3 3 3 2 4 6 7 6 9 11 11 13 15 16 17 18 19 18 17 16 14 13 16 20 22 25 27 27 24 22 22 21 20 21
10 11 11 11 11 11 11 13 13 13 13 16 19 19 17 15 13 10 10 11 12 9 6 5 4 3 1 2 7 14 12 8 7 7 5 5 5 5 5 7 8 8 8 7 5 4 4 3 3 4 5 3 3 4 3 1 4 5 5 6 7 11 13 13 15 15 15 16 18 18 17 17 16 15 16 18 21 23 26 26 24 22 22 21 21 22 22
10 10 10 10 10 10 10 10 10 11 13 15 17 17 17 17 17 14 10 8 9 11 11 8 4 2 2 1 3 11 13 9 7 7 5 4 5 4 3 4 5 6 8 7 5 4 3 3 2 2 2 3 3 3 1 4 6 6 6 7 9 13 15 14 14 15 15 17 20 19 16 15 15 16 17 20 22 25 26 24 22 23 23 22 23 24 24
10 9 9 9 10 9 8 8 8 9 11 13 13 13 13 13 16 18 16 12 9 8 9 10 6 3 3 1 2 9 13 9 7 7 5 4 5 5 4 4 4 4 4 4 3 3 3 2 1 1 2 3 2 0 3 5 7 7 7 8 11 15 16 14 14 15 17 19 21 18 13 12 14 16 19 21 24 25 25 23 22 23 23 23 24 25 25
9 9 8 8 8 8 8 7 7 7 10 11 10 9 8 9 12 15 17 19 18 13 8 6 5 3 2 0 3 9 12 9 7 7 5 3 3 4 4 3 3 3 3 3 3 3 2 1 1 1 2 1 1 3 4 5 7 7 7 9 13 15 15 15 16 17 19 21 20 15 11 12 15 17 19 23 25 25 23 22 22 23 23 24 25 25 25
9 9 8 7 7 7 7 7 7 6 8 8 7 6 6 6 6 8 13 19 23 20 14 9 5 3 2 1 4 9 10 7 7 7 6 4 4 3 4 3 1 1 3 3 2 2 2 1 0 0 1 2 4 5 5 5 6 7 8 11 15 17 16 16 17 18 20 22 20 14 12 14 17 18 21 24 25 24 22 22 22 23 23 24 25 25 26
9 8 8 8 7 5 5 6 6 6 6 6 5 5 6 5 4 5 11 14 15 16 16 12 7 6 6 2 4 8 8 5 6 7 6 6 5 2 3 3 2 2 2 2 1 1 3 2 2 1 3 5 5 6 7 8 8 9 9 13 17 17 15 16 17 18 20 22 19 15 15 16 17 19 22 25 25 23 22 22 22 23 23 24 25 25 25
8 7 7 8 8 6 5 5 5 5 6 6 4 3 5 6 5 5 8 9 7 9 13 10 7 9 9 4 4 7 8 6 6 4 4 5 5 2 2 2 1 2 2 1 1 2 3 2 2 2 3 4 6 7 9 10 10 10 12 16 18 16 15 15 17 18 20 20 17 16 16 16 18 20 23 25 24 22 21 21 21 22 23 23 23 24 24
8 6 6 7 8 7 7 5 4 4 5 5 4 4 5 8 6 4 5 5 4 6 9 8 6 8 10 6 3 5 7 7 5 2 2 3 3 2 2 1 1 2 2 1 2 2 1 1 1 2 2 4 5 7 9 10 10 12 15 18 18 16 16 16 17 19 20 19 16 14 14 15 17 20 23 23 22 21 20 20 21 21 22 22 22 23 24
8 6 6 7 7 7 8 7 5 4 4 4 4 4 4 5 5 5 5 3 2 4 7 8 7 8 9 7 4 4 6 6 4 2 2 2 4 3 1 1 0 2 1 3 3 2 2 0 2 2 4 4 5 7 9 10 10 13 17 19 18 16 16 17 18 20 20 17 14 13 15 16 18 20 20 19 19 19 19 20 20 20 21 21 21 22 23
8 6 6 7 7 6 6 8 7 5 4 4 4 2 2 2 2 4 4 2 1 4 7 8 8 9 9 8 6 4 4 5 5 2 1 2 4 3 0 0 2 2 1 3 2 3 3 1 3 4 4 3 4 6 8 9 11 16 19 19 16 16 16 17 19 21 20 16 14 14 15 16 18 19 18 17 16 17 18 19 20 20 20 20 21 21 22
9 6 4 6 7 6 5 7 8 6 4 3 3 2 3 3 2 1 2 1 2 4 6 7 9 10 8 6 6 5 4 4 4 2 0 2 4 2 1 2 2 1 1 1 2 2 0 2 4 4 4 3 4 7 8 10 13 18 20 17 16 16 17 18 20 21 19 15 14 15 15 16 16 16 16 15 15 15 16 17 19 19 19 19 20 20 21
8 7 3 3 6 7 3 4 7 6 3 2 2 1 1 3 2 1 2 3 4 5 7 10 11 9 6 6 6 4 2 2 3 2 1 3 3 2 2 0 1 1 2 2 1 0 3 4 5 5 5 5 6 8 9 12 16 19 18 16 16 17 17 19 21 20 17 15 15 15 14 14 14 13 13 14 15 15 16 16 17 18 18 19 19 19 20
8 7 4 2 6 9 5 2 4 5 2 1 1 3 3 1 2 3 3 5 6 7 9 11 11 9 7 6 5 3 2 3 3 1 1 2 2 1 0 1 1 1 2 1 1 2 3 4 4 5 6 6 7 8 11 15 18 18 16 15 16 16 17 19 20 18 16 15 15 15 14 14 13 13 12 12 13 15 16 16 17 18 18 19 20 20 20
7 7 4 2 4 7 4 1 1 2 1 3 2 3 3 3 3 3 5 7 8 8 10 11 10 8 7 4 2 2 2 3 2 1 1 2 1 1 2 1 1 2 2 1 2 3 4 5 4 4 5 6 7 9 13 17 18 17 16 16 16 17 18 19 18 17 16 16 15 14 14 14 13 13 13 12 12 13 14 16 17 18 19 19 20 20 20
5 6 5 3 1 3 3 1 1 1 2 3 3 3 3 3 4 5 7 8 9 9 10 10 7 5 4 3 1 2 2 1 1 1 1 1 1 1 1 1 0 0 1 1 4 5 5 4 4 5 6 7 9 11 14 17 18 18 17 16 16 17 18 18 17 17 16 16 15 14 14 14 13 13 13 12 12 12 14 15 17 18 19 20 20 20 20
4 4 4 2 2 0 1 1 3 3 3 3 3 3 3 3 4 5 6 8 8 9 9 8 5 3 2 1 1 2 2 1 1 1 0 1 0 1 2 2 2 2 2 4 5 5 3 4 6 7 7 8 10 12 15 17 18 18 18 17 17 17 17 17 16 16 16 15 15 14 14 14 14 14 14 13 13 12 14 15 17 18 18 19 20 19 20
6 5 4 4 3 2 2 3 3 3 4 5 4 3 3 3 4 5 6 7 7 7 7 5 3 1 1 1 1 1 1 1 0 0 1 1 0 1 1 0 2 3 3 5 5 5 5 7 8 8 8 9 11 13 16 17 18 19 18 17 16 16 16 15 16 16 16 16 15 15 14 15 14 14 14 14 14 13 14 15 16 17 18 19 20 20 20
6 5 5 4 3 2 4 4 2 3 5 6 5 4 4 4 4 4 5 6 6 6 5 3 2 1 1 1 1 1 1 1 1 1 0 1 2 2 1 2 4 4 4 5 5 6 8 8 8 9 9 10 11 14 16 18 19 19 18 16 16 16 15 15 15 16 15 15 15 15 15 15 15 15 15 15 15 14 14 14 15 16 17 18 19 19 19
4 4 4 3 2 3 5 4 3 3 4 4 5 5 4 3 4 4 5 5 4 3 2 1 1 2 2 1 1 1 1 1 1 1 1 3 2 3 2 4 6 5 5 6 7 8 8 9 9 9 9 10 12 14 16 18 20 19 18 16 16 15 14 14 15 15 15 14 14 15 14 14 14 15 15 15 15 14 13 13 14 15 16 17 18 18 18
1 2 2 1 2 4 4 3 3 3 4 3 3 4 4 4 4 4 5 4 3 2 2 1 0 2 1 1 1 0 0 1 1 1 2 3 4 5 5 6 7 8 9 10 10 9 9 9 9 9 9 10 12 14 17 19 20 19 18 17 15 14 14 14 14 14 14 14 14 14 14 14 14 14 14 15 15 15 14 14 14 14 15 17 18 18 18
Wind_Direction
340 341 344 345 348 352 352 350 349 350 353 356 1 4 16 53 74 17 11 4 1 64 57 0 13 59 106 178 105 52 24 7 358 8 21 8 342 1 23 165 156 215 222 228 257 249 232 244 282 298 254 262 326 310 339 345 307 174 319 323 359 18 82 31 296 291 313 313 336 50 45 55 71 24 25 75 49 80 140 171 198 221 315 3 120 267 214
339 341 345 347 351 352 351 352 352 355 0 4 7 8 19 60 64 29 19 11 19 94 92 17 5 333 319 67 29 3 12 29 20 354 359 356 28 48 2 216 337 301 202 143 236 243 199 308 328 81 211 202 351 337 355 0 356 62 356 333 359 338 168 72 354 341 349 347 355 355 346 24 62 10 3 28 42 44 73 100 74 98 297 79 132 251 230
341 345 349 350 353 353 355 359 0 2 5 6 9 12 21 57 55 31 25 28 51 91 120 131 132 132 37 45 11 355 3 24 35 348 328 352 84 110 313 284 290 312 323 346 299 277 205 281 337 36 316 281 358 1 4 0 345 7 330 307 350 286 192 107 98 127 305 297 297 289 291 340 34 33 6 6 30 26 348 67 66 90 307 31 129 227 235
347 351 354 354 356 359 1 4 4 5 6 7 12 17 25 56 39 3 15 36 57 73 76 83 111 131 99 58 15 23 6 335 5 4 338 353 356 276 287 297 306 1 21 6 319 310 289 290 22 36 317 286 322 2 12 17 0 357 347 332 17 102 125 100 146 171 199 220 247 259 265 5 38 33 13 9 9 15 63 85 62 168 342 340 217 226 295
356 358 0 359 0 2 1 2 2 3 7 11 15 21 33 60 40 352 358 24 48 59 50 47 69 123 118 99 15 5 338 320 357 13 302 342 349 322 346 13 29 20 18 16 299 295 328 359 29 54 293 274 298 346 15 26 359 353 348 329 46 80 359 323 146 196 234 239 267 9 59 63 72 60 31 26 19 31 69 85 287 112 73 298 274 349 345
3 2 2 0 360 358 357 359 360 1 7 12 18 27 36 54 98 75 51 7 23 44 24 28 59 75 82 116 31 9 2 349 350 290 298 344 14 24 3 3 16 254 299 37 304 310 345 358 322 269 314 306 334 355 4 26 4 358 355 347 79 104 312 295 127 280 297 312 64 92 87 78 73 72 55 41 39 48 73 101 196 95 126 242 307 350 338
4 1 360 357 357 355 354 357 358 2 8 12 20 34 44 70 106 88 59 60 155 99 351 4 63 55 38 66 40 42 44 338 285 252 353 355 7 40 337 298 311 303 275 146 144 310 346 334 299 253 336 317 356 2 333 5 4 4 8 359 61 105 280 302 85 329 348 20 74 100 99 93 72 62 56 51 57 68 79 93 320 37 179 224 4 344 292
360 357 356 354 354 353 353 356 0 5 10 13 25 39 51 72 77 66 90 81 57 40 351 9 75 42 23 52 29 81 141 307 300 2 48 348 326 18 329 289 301 305 270 124 150 250 185 225 259 205 82 322 358 38 249 289 349 4 22 338 3 49 318 321 70 35 357 28 67 80 96 102 82 55 39 42 45 46 48 22 353 14 347 343 6 330 278
357 357 357 357 359 359 360 4 6 9 14 17 27 41 51 59 53 62 110 76 15 11 2 49 90 44 11 38 329 330 53 292 297 319 47 205 266 322 293 294 313 345 60 90 152 254 176 204 242 197 134 292 270 355 324 274 331 350 17 338 353 36 357 350 59 52 321 14 93 99 104 96 76 42 16 27 40 24 359 10 29 22 320 329 349 336 302
3 5 7 8 11 12 13 16 15 15 19 21 29 40 42 47 50 53 99 81 11 9 7 37 64 58 334 357 320 318 337 350 29 25 293 237 121 323 302 280 314 356 28 68 262 296 297 257 267 51 29 327 90 80 58 60 35 346 18 17 8 62 57 6 48 62 284 284 155 159 114 45 14 1 351 350 66 30 350 18 60 31 31 19 342 318 315
18 20 22 23 24 25 25 25 23 22 23 23 31 40 36 42 47 32 78 99 9 2 20 36 44 57 329 355 349 307 353 1 30 116 266 265 324 341 330 309 9 339 270 262 330 9 49 98 93 82 82 80 82 89 77 58 55 54 51 40 4 47 79 90 60 96 269 292 334 102 70 338 248 199 8 329 106 38 359 334 91 46 57 69 318 316 331
31 33 33 33 33 32 32 31 28 28 29 28 31 34 29 36 38 24 69 109 7 9 48 64 30 21 359 356 343 282 326 342 335 199 270 280 312 343 333 1 62 5 252 325 0 92 107 95 83 80 87 87 81 74 63 50 45 41 44 71 68 28 44 341 68 78 271 306 33 42 325 252 206 145 23 1 70 34 359 2 125 49 26 14 344 337 336
40 39 38 37 36 35 35 34 33 32 33 31 31 32 26 26 31 35 76 105 61 8 60 109 74 36 8 354 347 304 294 315 303 276 272 278 312 352 348 356 1 296 299 326 28 128 121 78 62 56 47 49 55 52 45 35 35 32 31 37 56 67 64 51 55 55 344 9 36 1 236 240 237 26 12 8 15 6 358 9 155 5 11 15 349 331 331
43 41 40 38 38 38 37 36 37 36 35 34 32 32 27 25 33 43 70 94 110 5 59 126 1 7 358 350 356 341 310 323 314 276 267 293 302 352 3 352 334 322 325 324 129 135 122 55 53 21 353 6 20 17 13 22 48 46 31 24 35 83 110 69 51 53 70 66 308 285 247 353 1 9 353 347 337 333 337 314 234 58 43 19 350 331 336
43 41 41 39 38 38 37 37 38 37 37 36 34 34 32 29 35 42 50 93 132 85 43 23 313 328 333 344 7 9 348 348 347 298 268 286 288 344 4 357 347 339 340 345 130 130 116 77 57 23 2 13 6 297 334 10 44 57 45 35 41 56 70 79 78 37 72 86 353 349 340 287 294 344 323 323 315 305 301 274 245 56 36 10 355 343 340
43 42 40 38 37 36 36 35 36 36 35 35 36 37 37 32 35 46 42 57 125 104 8 348 314 314 324 338 15 24 4 334 343 340 324 326 345 14 0 356 353 343 339 338 119 86 66 74 124 93 354 278 228 247 12 11 323 1 22 30 39 42 43 70 76 36 46 80 53 310 247 229 232 316 317 325 320 310 310 272 254 16 13 1 356 348 341
42 40 37 36 36 34 35 34 33 34 34 35 37 37 38 39 37 39 30 35 88 92 16 3 0 345 354 359 0 14 1 330 337 8 327 315 330 4 356 352 351 355 356 352 24 62 59 49 46 55 304 279 94 83 10 57 20 330 345 10 27 23 13 36 52 34 14 80 80 282 242 181 27 325 321 328 325 324 360 339 271 349 358 353 352 345 337
40 37 35 35 34 33 34 34 33 34 34 35 38 37 37 37 31 32 36 49 87 87 41 38 51 40 30 27 350 357 4 351 349 320 293 301 2 348 341 347 3 1 355 10 53 57 53 39 42 73 270 303 41 83 33 43 36 318 324 358 19 11 354 30 59 44 355 41 275 297 268 164 343 331 331 338 335 338 88 262 299 338 344 342 343 338 333
37 34 31 32 31 30 32 32 32 34 34 35 39 37 35 34 31 35 39 57 92 92 67 60 63 56 53 54 37 35 35 18 8 349 324 14 353 336 329 12 36 5 350 21 60 70 59 18 342 102 98 334 9 96 73 35 43 317 345 14 22 12 345 359 53 31 345 47 241 308 280 140 349 337 338 358 0 328 268 316 325 331 329 330 335 333 333
32 30 28 28 27 27 29 30 31 33 32 35 37 35 36 34 32 36 41 75 100 96 79 69 68 63 63 61 54 54 47 28 22 24 44 317 336 343 356 90 1 354 1 28 35 58 70 19 316 59 80 357 22 111 92 50 49 1 49 88 46 25 345 328 314 290 343 12 10 330 265 333 0 351 349 31 35 299 305 320 320 321 324 329 334 335 336
28 26 25 24 24 26 27 28 31 31 30 34 35 34 38 36 36 47 48 67 104 98 83 74 71 65 62 57 51 50 45 36 31 23 8 339 350 8 67 222 344 3 25 24 22 326 37 43 341 42 59 338 37 90 131 105 29 356 90 109 46 76 112 293 279 178 81 35 338 313 239 351 5 13 49 41 352 316 323 325 321 329 335 335 335 335 337
25 23 23 23 23 26 27 28 31 31 31 35 35 34 40 40 41 49 47 57 97 98 91 82 73 63 58 54 47 43 40 37 34 25 19 23 31 42 65 43 30 45 29 17 48 55 359 44 88 64 54 30 43 73 126 118 24 322 21 67 69 77 51 259 240 224 211 223 240 303 1 2 6 32 66 26 355 342 344 340 336 339 339 336 337 335 335
23 21 22 24 24 27 29 29 31 32 32 35 36 36 39 40 41 48 53 76 93 91 83 74 67 58 51 48 45 40 38 37 34 33 35 42 49 51 50 43 43 44 25 26 37 2 10 76 123 117 102 74 72 83 73 64 118 258 11 42 143 35 3 343 213 304 303 255 252 325 346 351 355 14 19 7 358 348 343 342 342 341 333 332 336 333 330
21 21 22 25 27 29 30 30 31 32 32 35 38 37 37 37 40 49 58 76 91 89 75 62 59 54 47 46 44 40 39 38 38 43 48 51 57 56 46 43 49 49 39 34 34 44 64 71 108 108 95 21 74 99 76 38 132 140 42 352 248 15 15 20 74 338 327 268 334 359 342 336 338 340 345 347 345 339 337 338 336 331 329 331 333 330 327
21 22 25 27 29 30 31 31 31 31 32 37 41 38 35 36 38 47 56 66 89 102 88 60 52 53 51 49 48 45 43 41 42 50 56 59 63 62 53 54 63 61 53 54 65 80 79 67 80 101 94 16 29 90 122 118 131 127 82 9 275 337 3 11 348 334 302 269 303 335 328 319 320 334 341 341 337 332 333 334 329 328 332 333 331 329 329
23 26 28 31 32 32 32 32 30 30 34 42 45 38 35 39 42 46 53 61 77 93 96 79 60 57 54 50 50 49 48 48 49 54 60 61 61 61 57 57 68 70 66 69 77 81 79 74 73 88 80 43 58 90 128 108 89 87 101 161 270 306 328 335 297 308 289 276 309 335 330 313 302 327 334 335 331 326 329 331 329 331 334 333 330 331 334
27 31 34 36 37 35 34 32 29 32 41 53 53 46 44 50 51 48 48 48 54 77 98 114 89 67 55 51 54 52 50 52 54 55 60 60 55 55 51 45 58 81 77 72 73 73 74 72 63 61 83 81 77 82 98 102 96 94 95 13 335 326 312 341 359 324 284 292 339 346 335 299 299 321 330 331 323 321 327 330 331 334 335 332 331 333 335
32 37 39 41 40 38 38 36 34 38 52 65 63 56 54 56 56 53 53 52 53 90 111 116 105 77 55 46 49 51 50 53 57 57 58 54 48 49 47 43 51 69 81 86 82 68 62 69 69 69 98 102 85 79 91 96 83 63 325 313 12 356 290 293 308 274 271 302 326 330 318 300 305 320 329 324 316 320 328 331 332 334 333 331 332 333 334
37 41 43 44 44 43 44 45 44 45 56 70 67 56 52 52 52 51 53 52 51 87 106 104 90 72 60 48 47 50 48 48 52 55 55 52 50 49 47 45 52 66 83 93 90 78 72 83 87 69 57 83 118 122 114 93 70 310 229 220 277 323 311 301 287 273 284 302 312 317 315 309 311 320 323 314 311 320 326 328 331 332 330 331 334 334 333
40 44 45 45 47 48 50 53 51 50 55 63 59 45 44 47 45 44 50 53 49 69 100 106 96 81 72 56 46 46 47 47 52 57 58 59 58 54 51 53 59 71 88 93 90 86 86 84 81 73 60 74 123 136 137 130 157 236 218 214 253 312 324 315 296 289 298 305 308 311 311 309 313 319 314 299 303 316 323 326 329 329 329 333 336 335 336
44 47 47 47 50 52 55 58 55 52 56 60 58 50 45 45 44 43 45 50 51 61 86 100 110 114 84 55 42 38 41 47 52 61 64 62 59 56 54 59 66 74 84 87 83 81 82 70 65 76 72 76 108 128 126 123 159 265 227 211 247 308 327 320 304 300 305 306 308 310 311 312 319 323 310 299 308 317 322 324 326 329 332 335 337 336 340
46 48 48 49 51 53 57 60 56 51 55 60 62 62 62 55 52 53 50 48 49 57 78 92 99 112 110 53 36 30 36 48 47 52 64 56 52 56 55 55 59 61 67 75 74 66 61 60 66 69 55 54 98 107 91 110 173 231 214 211 258 311 326 319 308 307 309 310 314 319 319 321 324 320 309 307 311 314 319 323 328 331 334 335 337 340 343
48 49 50 51 53 56 61 63 59 52 51 59 63 63 61 58 56 58 58 55 55 57 64 86 97 73 80 97 32 23 29 43 40 42 59 49 36 46 50 47 50 50 48 55 68 70 69 70 77 72 52 49 98 101 79 160 197 208 214 231 277 316 327 319 311 310 311 314 321 324 319 314 312 306 301 304 308 314 321 328 331 333 335 339 343 347 347
48 50 51 51 53 59 62 62 60 53 49 58 65 64 62 61 58 58 59 55 54 58 58 65 90 63 22 114 41 19 18 23 26 29 38 37 31 35 30 26 38 48 49 55 68 78 71 51 56 76 45 26 64 79 295 229 206 210 231 255 297 324 326 318 313 314 314 317 322 322 313 302 299 298 300 307 314 322 329 333 334 335 340 345 348 349 348
48 49 52 52 53 58 60 59 59 52 48 56 64 63 63 64 58 55 53 49 54 65 57 50 64 68 16 13 4 3 5 11 17 12 6 15 30 28 21 32 46 45 41 52 67 70 61 45 35 343 327 345 12 237 240 219 206 218 248 278 313 327 323 315 315 317 316 319 323 324 315 300 299 303 309 317 324 330 333 335 337 339 343 346 347 348 348
47 48 51 53 54 57 60 59 58 53 50 54 58 57 60 64 57 51 47 47 54 67 72 59 64 69 51 220 302 339 353 2 7 3 358 5 20 21 26 47 66 54 37 45 60 58 48 9 290 320 351 356 237 232 232 219 218 236 265 299 323 329 322 314 314 314 315 320 326 327 315 303 305 312 319 325 330 333 334 336 340 343 343 344 345 347 346
45 47 49 51 53 58 61 59 58 57 52 48 50 55 56 58 56 44 36 41 49 57 64 76 75 31 8 246 301 337 348 350 355 4 13 10 5 21 42 49 96 110 40 31 38 33 3 348 47 114 246 236 240 247 242 235 245 260 281 311 327 329 321 313 312 312 317 324 329 327 316 310 313 319 326 331 333 334 335 338 341 342 342 342 343 344 344
42 49 49 49 51 55 57 55 54 55 47 40 48 58 46 38 44 30 23 32 43 44 47 61 64 22 8 329 328 352 355 344 351 8 22 16 6 13 44 50 111 143 22 343 295 322 342 355 67 99 251 247 242 243 242 245 257 270 289 314 326 326 319 313 313 316 322 327 327 322 318 318 320 325 330 332 332 332 334 338 340 340 339 340 341 342 340
38 47 50 49 50 53 56 55 50 44 38 39 53 57 30 26 33 18 10 20 36 34 34 44 44 19 11 359 350 5 4 354 354 4 14 17 14 1 10 44 106 88 36 347 295 3 343 321 10 15 289 246 225 229 239 248 258 272 296 317 324 323 317 314 314 319 324 325 321 315 316 319 321 324 327 327 327 328 333 336 336 336 337 337 338 339 338
35 48 52 48 50 54 50 45 43 41 38 42 53 52 37 35 36 16 0 13 35 32 23 19 7 5 6 356 340 358 4 4 2 346 345 4 3 345 347 32 96 63 56 291 307 8 9 276 340 355 273 243 227 227 239 249 260 281 307 322 325 320 317 315 314 318 323 323 317 311 313 315 317 321 323 324 324 326 330 333 333 333 334 336 338 338 338
33 50 56 48 51 55 47 41 46 54 49 44 46 45 37 32 26 21 23 33 18 351 358 358 353 352 355 350 332 332 351 359 354 314 299 339 350 351 345 233 29 58 129 256 300 31 85 41 323 277 251 252 243 237 243 255 272 297 317 323 321 316 314 312 314 319 324 323 317 313 314 316 318 320 321 321 323 326 329 330 330 331 333 336 337 337 337
33 47 59 51 49 54 48 40 41 45 46 43 43 32 19 20 16 19 32 51 316 327 345 353 349 338 334 334 328 316 328 348 348 322 281 336 345 352 171 209 30 59 212 262 321 43 60 355 289 262 260 265 250 247 255 268 288 309 319 321 316 314 313 313 316 321 323 320 315 315 317 318 319 320 321 322 326 329 328 326 327 330 334 335 336 337 336
30 36 53 48 39 40 43 34 29 34 50 50 38 12 0 7 7 1 3 348 323 334 339 340 341 338 332 331 332 323 317 333 337 327 282 331 335 357 59 35 28 62 251 316 28 58 90 238 237 252 277 285 266 266 274 286 302 316 321 319 315 315 315 314 317 321 321 319 316 316 317 318 320 323 324 325 327 328 326 324 325 328 332 335 337 337 336
25 29 48 47 24 22 25 18 19 30 51 51 50 83 11 347 328 261 289 319 327 335 333 332 335 336 329 326 332 327 306 327 342 342 330 332 342 39 77 3 267 267 314 350 48 222 250 236 234 258 285 286 275 278 288 300 312 321 322 318 315 316 314 313 317 319 320 320 318 316 316 320 324 326 327 326 326 327 326 325 326 328 332 336 338 339 339
21 24 41 50 16 14 16 11 19 32 61 212 175 155 169 259 263 223 256 301 313 322 326 326 327 324 317 319 328 321 308 336 345 327 323 350 12 56 201 246 270 36 25 351 309 308 287 256 249 267 282 285 283 289 300 311 320 325 322 316 314 313 311 313 317 320 321 321 319 317 319 325 329 331 332 331 329 328 326 326 329 332 335 338 340 342 343
22 23 44 83 25 16 26 66 13 18 182 205 211 188 191 226 253 262 286 302 307 313 319 321 321 320 321 325 330 313 318 336 333 308 1 36 52 245 251 250 36 40 35 348 298 279 254 250 270 293 299 299 301 305 313 321 326 328 325 320 316 315 315 317 320 322 322 321 319 318 323 328 331 334 337 337 334 331 329 329 332 335 336 338 342 344 345
22 26 44 79 69 14 31 90 212 224 183 195 219 229 239 264 282 292 303 309 311 315 321 323 321 316 316 319 300 288 312 351 346 309 4 87 186 270 356 42 121 193 178 245 260 249 241 265 312 322 315 313 315 318 323 329 331 330 328 325 321 319 320 320 320 321 322 320 318 319 325 331 334 335 338 341 341 338 334 333 335 337 336 338 342 345 344
30 23 37 85 161 249 54 147 191 199 196 209 231 238 249 275 293 303 312 317 320 322 324 325 323 313 309 309 270 270 305 1 341 259 268 100 147 328 9 7 295 265 210 205 222 232 250 300 319 321 320 322 324 327 331 334 334 332 330 326 323 321 321 319 319 320 320 319 320 324 329 333 335 336 338 342 345 343 339 337 338 337 335 336 342 346 345
52 51 71 107 133 157 163 170 198 224 225 229 239 245 252 269 289 304 314 322 327 328 326 327 333 319 294 309 305 273 283 316 239 249 22 27 18 189 123 325 286 282 250 217 221 247 281 301 312 320 323 325 328 332 336 337 336 334 332 327 323 322 322 320 319 320 320 320 323 328 331 332 334 336 337 341 344 344 342 340 339 337 334 336 343 348 348
55 62 86 100 101 147 173 178 220 254 240 232 236 245 257 271 287 304 318 326 330 332 332 333 333 316 297 356 23 1 270 222 147 98 21 237 196 170 173 237 236 234 231 232 248 276 293 301 309 317 320 323 329 334 338 340 340 337 334 329 325 324 323 321 320 319 319 320 324 327 329 330 333 335 336 338 342 344 343 341 338 336 335 338 343 347 349
61 76 98 105 118 160 172 182 227 253 245 238 237 241 256 276 291 309 323 328 334 342 340 321 341 24 35 36 13 303 249 205 93 94 241 232 181 139 170 227 229 235 263 283 288 292 295 299 306 313 317 323 330 334 339 343 343 340 336 331 327 323 322 322 320 319 319 320 323 325 326 328 331 333 334 335 337 339 340 338 336 335 337 340 343 347 349
85 111 131 158 180 182 187 213 256 257 253 253 248 247 260 277 287 303 316 319 325 332 312 272 163 65 61 257 257 278 320 348 356 270 243 226 194 183 205 241 265 282 292 295 294 294 294 297 304 310 315 319 327 334 341 345 346 343 338 333 328 324 323 322 321 319 320 320 322 322 323 325 328 331 332 331 331 331 333 337 340 341 341 343 345 348 351
Height
1557 1555 1554 1552 1551 1549 1548 1547 1546 1544 1542 1540 1538 1536 1535 1535 1535 1535 1534 1533 1532 1531 1534 1537 1539 1541 1543 1544 1544 1544 1544 1544 1544 1544 1544 1544 1544 1544 1544 1544 1544 1543 1543 1543 1542 1541 1539 1537 1537 1538 1538 1540 1541 1542 1542 1541 1541 1540 1537 1537 1538 1537 1536 1534 1528 1525 1526 1526 1526 1528 1529 1528 1528 1530 1532 1533 1531 1531 1532 1532 1533 1533 1533 1537 1536 1538 1553
1556 1555 1553 1552 1551 1550 1549 1547 1545 1543 1541 1539 1538 1536 1536 1536 1536 1536 1535 1533 1531 1532 1535 1538 1540 1544 1544 1544 1544 1544 1544 1544 1544 1545 1544 1544 1545 1544 1544 1544 1544 1543 1544 1543 1542 1541 1539 1537 1538 1539 1539 1540 1542 1542 1542 1541 1541 1540 1538 1538 1538 1535 1534 1535 1531 1526 1525 1526 1526 1526 1527 1529 1530 1534 1537 1536 1536 1536 1535 1537 1538 1536 1539 1544 1540 1540 1551
1556 1555 1553 1552 1551 1550 1549 1547 1545 1543 1541 1539 1538 1536 1536 1536 1536 1536 1536 1534 1532 1534 1538 1539 1541 1544 1544 1543 1545 1545 1544 1545 1545 1545 1545 1545 1545 1545 1545 1544 1544 1545 1544 1543 1542 1542 1540 1538 1539 1540 1540 1541 1543 1542 1541 1541 1541 1540 1540 1540 1539 1536 1535 1536 1533 1531 1529 1528 1529 1529 1529 1532 1535 1538 1541 1539 1539 1538 1535 1536 1537 1538 1546 1550 1546 1545 1551
1556 1555 1553 1552 1551 1550 1548 1547 1545 1543 1542 1540 1539 1537 1537 1536 1536 1537 1537 1535 1535 1537 1539 1540 1540 1543 1543 1543 1545 1546 1545 1545 1545 1545 1545 1545 1545 1545 1545 1545 1544 1544 1544 1543 1542 1541 1541 1540 1540 1540 1540 1541 1543 1542 1541 1541 1541 1541 1540 1540 1540 1538 1538 1537 1534 1533 1532 1530 1532 1535 1534 1536 1539 1544 1546 1545 1544 1542 1538 1540 1545 1549 1552 1550 1548 1552 1554
1556 1555 1554 1553 1552 1550 1548 1547 1545 1544 1543 1541 1540 1538 1538 1538 1539 1540 1539 1537 1537 1539 1540 1541 1541 1542 1543 1543 1546 1546 1545 1546 1545 1545 1545 1545 1545 1545 1545 1545 1545 1544 1545 1544 1542 1541 1542 1542 1541 1543 1543 1543 1543 1542 1542 1542 1541 1541 1541 1540 1540 1538 1536 1539 1539 1536 1534 1534 1537 1538 1538 1542 1547 1549 1551 1551 1549 1546 1544 1548 1553 1555 1554 1549 1548 1553 1554
1556 1555 1554 1553 1551 1550 1548 1547 1546 1544 1543 1542 1540 1539 1539 1539 1541 1543 1542 1541 1541 1542 1542 1543 1543 1543 1544 1545 1547 1547 1546 1546 1545 1545 1546 1546 1546 1545 1545 1545 1546 1546 1546 1545 1543 1542 1541 1541 1542 1545 1545 1544 1543 1542 1542 1542 1541 1541 1541 1539 1541 1539 1536 1541 1542 1537 1537 1539 1541 1541 1543 1549 1553 1553 1554 1555 1553 1551 1551 1554 1555 1554 1553 1551 1552 1555 1556
1556 1555 1554 1553 1551 1550 1549 1547 1546 1545 1543 1542 1541 1540 1540 1541 1541 1543 1543 1543 1544 1544 1544 1544 1544 1544 1545 1546 1547 1547 1547 1547 1547 1547 1546 1546 1546 1546 1544 1544 1545 1546 1547 1545 1544 1543 1542 1541 1543 1546 1546 1545 1545 1543 1542 1542 1542 1541 1541 1540 1541 1539 1538 1542 1543 1538 1541 1544 1543 1543 1546 1550 1555 1557 1557 1557 1557 1556 1556 1556 1556 1554 1553 1555 1558 1559 1558
1557 1555 1554 1553 1551 1550 1549 1547 1546 1545 1544 1543 1542 1541 1541 1542 1542 1543 1543 1543 1544 1545 1545 1545 1544 1545 1546 1546 1547 1548 1548 1547 1548 1549 1547 1546 1547 1547 1546 1545 1546 1547 1546 1545 1544 1545 1545 1544 1545 1547 1547 1546 1547 1546 1545 1545 1543 1542 1542 1542 1541 1539 1539 1544 1542 1538 1542 1548 1547 1547 1549 1551 1556 1560 1559 1558 1558 1557 1557 1557 1558 1556 1555 1558 1562 1562 1559
1557 1555 1554 1553 1551 1550 1549 1548 1546 1545 1544 1543 1543 1542 1542 1542 1542 1542 1543 1544 1546 1545 1545 1545 1544 1545 1547 1547 1548 1549 1549 1549 1549 1549 1549 1548 1547 1548 1547 1547 1546 1546 1546 1545 1545 1546 1547 1546 1546 1547 1547 1547 1547 1547 1547 1547 1545 1544 1544 1544 1543 1541 1541 1544 1542 1537 1541 1547 1548 1550 1553 1551 1553 1559 1562 1560 1560 1560 1560 1560 1561 1561 1561 1562 1563 1562 1561
1557 1556 1554 1553 1552 1550 1549 1548 1547 1546 1545 1544 1543 1543 1543 1543 1542 1543 1542 1544 1546 1546 1546 1546 1545 1546 1549 1550 1549 1549 1549 1550 1549 1547 1548 1548 1548 1548 1547 1547 1546 1546 1545 1545 1546 1546 1546 1546 1546 1547 1547 1547 1547 1547 1547 1547 1546 1546 1546 1546 1546 1546 1544 1544 1544 1540 1541 1546 1548 1550 1550 1545 1549 1561 1565 1562 1563 1564 1562 1562 1564 1564 1564 1565 1565 1564 1562
1557 1556 1555 1554 1552 1551 1550 1548 1547 1546 1545 1545 1544 1543 1543 1543 1543 1543 1542 1544 1547 1547 1546 1547 1547 1548 1551 1550 1550 1550 1549 1549 1549 1547 1547 1548 1548 1547 1547 1547 1546 1545 1545 1546 1546 1546 1546 1546 1547 1547 1547 1547 1547 1548 1547 1547 1547 1547 1547 1547 1548 1549 1547 1546 1547 1544 1540 1545 1550 1549 1545 1544 1553 1565 1566 1562 1563 1564 1563 1563 1565 1565 1565 1566 1566 1564 1562
1558 1557 1556 1555 1553 1552 1551 1549 1548 1547 1546 1545 1545 1544 1544 1543 1543 1543 1542 1544 1547 1548 1547 1549 1550 1550 1551 1550 1550 1550 1549 1549 1549 1548 1548 1548 1547 1547 1547 1546 1545 1545 1546 1546 1546 1546 1546 1547 1547 1548 1548 1548 1548 1548 1548 1548 1548 1548 1548 1547 1547 1548 1547 1547 1549 1548 1544 1546 1547 1542 1540 1550 1562 1566 1564 1563 1563 1562 1563 1564 1566 1566 1566 1565 1565 1564 1562
1559 1558 1557 1556 1554 1553 1552 1550 1549 1548 1547 1546 1546 1545 1544 1544 1543 1543 1543 1544 1548 1550 1549 1550 1551 1551 1550 1550 1550 1549 1549 1549 1548 1548 1548 1547 1547 1547 1546 1546 1546 1546 1546 1546 1546 1546 1547 1549 1549 1549 1549 1549 1548 1549 1549 1549 1550 1549 1549 1548 1548 1548 1548 1547 1549 1550 1548 1548 1548 1544 1548 1560 1566 1564 1563 1564 1563 1562 1563 1565 1566 1567 1566 1565 1565 1564 1562
1560 1559 1558 1557 1555 1554 1553 1551 1550 1549 1548 1547 1546 1545 1545 1544 1544 1544 1543 1544 1549 1552 1551 1550 1551 1551 1551 1550 1550 1549 1549 1548 1548 1548 1548 1547 1547 1547 1546 1546 1546 1546 1546 1546 1546 1546 1547 1549 1548 1547 1549 1550 1548 1549 1551 1551 1552 1552 1551 1550 1549 1548 1548 1548 1549 1552 1553 1553 1553 1555 1559 1563 1567 1569 1569 1569 1569 1568 1568 1568 1566 1566 1566 1565 1564 1562 1560
1561 1560 1559 1557 1556 1555 1554 1552 1551 1550 1549 1548 1547 1546 1545 1545 1545 1544 1544 1544 1548 1551 1552 1551 1552 1552 1551 1551 1550 1549 1549 1549 1548 1548 1547 1547 1547 1547 1547 1547 1546 1545 1545 1545 1545 1546 1546 1545 1543 1542 1545 1546 1545 1548 1552 1553 1553 1553 1554 1553 1551 1550 1551 1549 1549 1555 1559 1556 1555 1557 1556 1558 1568 1575 1573 1571 1571 1569 1570 1570 1566 1564 1565 1565 1563 1562 1559
1562 1561 1560 1559 1557 1556 1555 1554 1552 1551 1550 1549 1548 1547 1547 1546 1545 1545 1545 1545 1545 1549 1553 1554 1553 1553 1552 1551 1551 1551 1551 1550 1549 1548 1547 1547 1547 1547 1547 1547 1546 1546 1546 1545 1545 1546 1544 1543 1543 1542 1544 1545 1544 1547 1551 1553 1554 1553 1553 1554 1554 1553 1555 1554 1553 1559 1563 1560 1558 1557 1554 1559 1573 1577 1572 1570 1569 1567 1568 1568 1563 1563 1565 1564 1562 1562 1559
1563 1562 1561 1560 1558 1557 1556 1555 1554 1552 1551 1550 1549 1548 1548 1547 1546 1546 1546 1545 1546 1551 1555 1554 1553 1553 1553 1552 1552 1553 1552 1552 1551 1550 1548 1547 1548 1548 1547 1547 1546 1546 1545 1545 1545 1545 1543 1544 1545 1545 1546 1547 1547 1547 1550 1555 1559 1558 1557 1558 1558 1558 1560 1561 1561 1565 1567 1565 1562 1559 1558 1566 1575 1574 1570 1569 1567 1566 1567 1562 1557 1561 1565 1563 1561 1561 1559
1564 1563 1562 1561 1559 1558 1557 1556 1555 1554 1552 1552 1551 1550 1549 1548 1547 1547 1546 1545 1547 1553 1557 1555 1554 1555 1555 1555 1555 1554 1554 1554 1553 1552 1550 1548 1548 1548 1548 1548 1547 1546 1546 1546 1546 1545 1544 1545 1548 1547 1548 1549 1548 1550 1556 1562 1567 1568 1567 1566 1566 1568 1569 1569 1569 1570 1569 1568 1565 1561 1563 1571 1574 1571 1570 1568 1564 1564 1565 1561 1560 1563 1564 1562 1562 1561 1559
1565 1564 1563 1562 1560 1559 1558 1557 1556 1555 1554 1553 1552 1551 1550 1549 1548 1548 1547 1546 1548 1553 1558 1557 1556 1557 1556 1557 1557 1556 1556 1556 1555 1554 1552 1550 1550 1549 1548 1548 1548 1547 1547 1546 1547 1548 1547 1548 1551 1552 1550 1551 1554 1558 1566 1571 1572 1573 1573 1572 1573 1576 1576 1574 1574 1574 1573 1573 1571 1563 1563 1571 1575 1571 1568 1567 1565 1566 1567 1566 1567 1566 1563 1563 1562 1560 1558
1566 1565 1564 1563 1562 1560 1559 1558 1557 1556 1555 1554 1553 1552 1551 1550 1549 1548 1548 1548 1549 1553 1558 1559 1558 1558 1558 1558 1558 1557 1557 1557 1556 1556 1555 1553 1552 1549 1548 1549 1549 1549 1549 1548 1548 1551 1551 1550 1553 1555 1555 1558 1560 1562 1569 1576 1577 1576 1576 1577 1580 1581 1579 1576 1577 1578 1578 1576 1572 1564 1563 1570 1574 1570 1568 1569 1571 1572 1571 1570 1569 1567 1564 1563 1560 1558 1557
1567 1566 1565 1563 1562 1561 1560 1559 1558 1557 1556 1555 1554 1553 1552 1552 1551 1550 1549 1549 1549 1553 1559 1561 1560 1560 1560 1560 1559 1559 1559 1558 1557 1557 1557 1556 1554 1551 1551 1554 1554 1553 1554 1553 1552 1554 1554 1554 1556 1557 1559 1562 1563 1564 1571 1576 1577 1577 1577 1579 1581 1583 1583 1581 1580 1580 1580 1578 1573 1570 1571 1573 1573 1571 1572 1573 1573 1573 1572 1570 1567 1565 1563 1561 1558 1557 1556
1567 1566 1565 1564 1563 1562 1561 1560 1559 1558 1557 1556 1555 1554 1553 1553 1552 1551 1551 1551 1550 1553 1559 1562 1562 1562 1562 1561 1561 1561 1560 1560 1559 1558 1557 1556 1556 1555 1556 1557 1557 1556 1557 1557 1555 1555 1556 1556 1558 1560 1564 1566 1567 1571 1576 1576 1575 1578 1579 1579 1581 1584 1585 1584 1582 1581 1581 1578 1575 1574 1575 1575 1574 1573 1573 1574 1573 1572 1570 1568 1566 1563 1561 1560 1557 1555 1553
1568 1567 1566 1565 1564 1563 1561 1561 1560 1559 1558 1557 1556 1555 1554 1554 1553 1552 1553 1553 1553 1556 1561 1563 1563 1563 1563 1563 1563 1562 1561 1560 1560 1559 1558 1557 1557 1557 1557 1558 1557 1558 1558 1558 1558 1558 1558 1558 1560 1562 1567 1570 1570 1574 1577 1576 1577 1582 1582 1581 1584 1585 1584 1583 1582 1582 1580 1577 1575 1576 1575 1574 1574 1573 1573 1572 1571 1569 1568 1566 1564 1563 1561 1559 1557 1554 1551
1569 1567 1566 1565 1564 1563 1562 1561 1560 1559 1559 1558 1557 1556 1556 1555 1555 1554 1554 1555 1555 1557 1562 1565 1565 1565 1565 1565 1564 1564 1563 1562 1561 1560 1559 1559 1558 1558 1559 1559 1559 1559 1559 1559 1559 1559 1558 1560 1561 1562 1567 1572 1573 1574 1576 1577 1580 1584 1583 1583 1585 1584 1583 1583 1583 1584 1581 1575 1574 1576 1574 1573 1573 1573 1571 1570 1569 1567 1566 1564 1563 1562 1560 1558 1556 1553 1550
1569 1568 1567 1566 1565 1564 1563 1562 1561 1560 1560 1559 1558 1558 1557 1557 1556 1556 1556 1556 1556 1557 1562 1567 1568 1568 1568 1567 1566 1565 1564 1564 1563 1562 1561 1561 1560 1560 1560 1561 1560 1560 1560 1559 1560 1559 1559 1561 1562 1564 1568 1572 1574 1576 1579 1579 1581 1583 1584 1586 1587 1584 1583 1585 1585 1585 1582 1576 1575 1575 1574 1572 1572 1571 1570 1569 1567 1566 1565 1563 1562 1560 1558 1556 1554 1551 1548
1570 1569 1568 1567 1566 1565 1564 1563 1562 1561 1561 1560 1560 1559 1558 1558 1557 1557 1557 1557 1558 1558 1563 1569 1571 1570 1569 1568 1567 1567 1566 1565 1565 1564 1563 1563 1562 1562 1562 1562 1561 1561 1561 1561 1560 1560 1561 1563 1565 1567 1570 1572 1573 1577 1581 1581 1581 1583 1585 1587 1588 1586 1585 1586 1586 1585 1582 1577 1575 1575 1573 1571 1571 1570 1569 1568 1566 1564 1563 1561 1560 1558 1556 1554 1551 1549 1547
1570 1569 1568 1567 1567 1566 1565 1564 1563 1562 1562 1561 1561 1561 1560 1559 1559 1559 1558 1558 1558 1559 1563 1569 1572 1571 1570 1570 1569 1569 1568 1567 1567 1566 1565 1565 1564 1564 1563 1563 1562 1562 1562 1562 1562 1562 1562 1565 1568 1571 1573 1574 1575 1579 1582 1582 1583 1585 1587 1588 1587 1586 1586 1586 1587 1586 1583 1578 1576 1576 1574 1572 1570 1569 1568 1566 1564 1563 1561 1559 1557 1555 1553 1550 1548 1546 1544
1571 1570 1569 1568 1567 1567 1566 1565 1564 1563 1563 1563 1562 1562 1561 1561 1560 1560 1560 1559 1559 1559 1563 1568 1571 1571 1571 1571 1571 1570 1570 1570 1569 1568 1567 1567 1566 1565 1565 1564 1563 1563 1562 1562 1563 1564 1566 1568 1571 1574 1575 1575 1577 1580 1583 1583 1583 1585 1587 1587 1587 1586 1586 1586 1586 1585 1581 1578 1576 1577 1575 1573 1570 1568 1567 1565 1562 1561 1559 1557 1555 1553 1551 1548 1546 1543 1540
1572 1571 1570 1569 1568 1568 1567 1566 1565 1564 1564 1564 1563 1563 1563 1562 1562 1562 1562 1561 1561 1561 1563 1566 1570 1572 1573 1573 1573 1572 1572 1571 1570 1570 1569 1569 1568 1567 1566 1565 1565 1564 1564 1564 1565 1567 1569 1572 1574 1575 1575 1575 1577 1581 1584 1584 1583 1584 1585 1586 1586 1585 1585 1584 1583 1582 1579 1577 1576 1575 1573 1571 1569 1567 1566 1563 1561 1559 1558 1556 1554 1551 1549 1547 1545 1542 1539
1573 1572 1571 1570 1570 1569 1568 1567 1566 1566 1565 1565 1564 1564 1563 1563 1564 1564 1563 1563 1563 1563 1563 1565 1569 1573 1574 1574 1574 1574 1573 1573 1572 1571 1571 1570 1569 1568 1568 1567 1566 1566 1566 1566 1566 1569 1572 1574 1575 1576 1577 1576 1578 1580 1583 1585 1584 1584 1584 1584 1584 1584 1583 1582 1581 1580 1578 1576 1575 1573 1572 1570 1568 1566 1564 1562 1560 1558 1556 1554 1552 1550 1548 1545 1543 1541 1538
1574 1573 1572 1572 1571 1570 1570 1569 1568 1567 1567 1566 1565 1565 1565 1565 1566 1566 1565 1564 1564 1564 1563 1565 1570 1573 1575 1575 1575 1575 1574 1574 1573 1572 1572 1571 1570 1570 1569 1568 1568 1568 1567 1568 1569 1571 1573 1575 1576 1577 1578 1577 1577 1580 1583 1583 1583 1582 1583 1583 1582 1582 1581 1580 1579 1578 1576 1574 1573 1571 1570 1568 1566 1564 1562 1560 1558 1557 1555 1553 1551 1548 1546 1544 1542 1539 1537
1574 1574 1573 1572 1572 1571 1571 1570 1569 1569 1569 1568 1567 1566 1567 1568 1567 1567 1566 1566 1565 1565 1564 1566 1570 1573 1575 1576 1577 1576 1575 1574 1573 1573 1572 1572 1571 1571 1570 1570 1570 1570 1570 1570 1571 1573 1576 1577 1578 1578 1578 1577 1578 1580 1582 1582 1580 1580 1581 1581 1581 1580 1579 1578 1577 1576 1574 1573 1571 1568 1566 1565 1564 1562 1560 1559 1557 1556 1554 1551 1549 1547 1545 1543 1541 1538 1536
1575 1575 1574 1573 1573 1572 1572 1571 1571 1571 1570 1569 1568 1569 1569 1569 1568 1568 1568 1567 1566 1566 1565 1567 1570 1574 1576 1577 1577 1576 1575 1575 1574 1573 1573 1572 1572 1571 1571 1571 1571 1571 1571 1572 1574 1576 1578 1578 1578 1578 1578 1578 1578 1580 1581 1580 1579 1579 1579 1579 1579 1579 1578 1576 1575 1574 1572 1571 1570 1567 1565 1563 1562 1560 1559 1557 1556 1554 1552 1549 1547 1545 1543 1541 1538 1536 1534
1576 1575 1575 1574 1574 1573 1573 1573 1573 1572 1572 1571 1570 1571 1571 1571 1570 1569 1569 1568 1568 1567 1567 1568 1572 1575 1576 1577 1577 1577 1575 1575 1574 1574 1573 1573 1572 1572 1572 1572 1572 1573 1574 1575 1576 1578 1579 1579 1579 1579 1579 1579 1580 1579 1578 1578 1578 1578 1578 1578 1578 1577 1575 1574 1573 1572 1571 1569 1568 1566 1564 1561 1560 1559 1557 1556 1554 1552 1549 1547 1544 1542 1540 1538 1536 1534 1531
1577 1576 1576 1575 1575 1574 1574 1574 1574 1573 1573 1572 1572 1572 1573 1573 1572 1571 1570 1569 1569 1569 1570 1572 1575 1578 1578 1577 1577 1577 1576 1575 1575 1575 1574 1574 1573 1574 1574 1573 1574 1575 1576 1577 1577 1579 1579 1579 1579 1579 1580 1580 1579 1578 1576 1576 1577 1577 1577 1577 1576 1575 1573 1572 1571 1570 1569 1567 1565 1563 1561 1559 1558 1557 1555 1553 1551 1549 1547 1545 1543 1540 1538 1536 1534 1532 1530
1577 1577 1576 1576 1576 1575 1575 1575 1575 1574 1574 1574 1574 1574 1574 1573 1573 1573 1572 1571 1570 1571 1573 1575 1579 1581 1582 1581 1579 1578 1577 1576 1576 1575 1575 1574 1574 1574 1574 1574 1575 1577 1577 1578 1578 1579 1580 1579 1578 1579 1580 1578 1576 1575 1576 1575 1576 1576 1576 1575 1575 1573 1572 1570 1569 1567 1566 1565 1563 1561 1559 1557 1556 1555 1553 1551 1549 1547 1545 1543 1541 1538 1536 1534 1532 1530 1528
1578 1577 1577 1576 1576 1576 1576 1576 1576 1575 1575 1575 1575 1575 1574 1574 1574 1574 1573 1572 1572 1573 1574 1577 1581 1584 1584 1583 1582 1580 1578 1577 1577 1576 1576 1575 1575 1575 1575 1575 1577 1578 1578 1579 1580 1580 1579 1579 1579 1579 1578 1576 1574 1575 1575 1575 1575 1575 1575 1574 1573 1572 1570 1569 1567 1566 1564 1562 1560 1558 1557 1556 1554 1552 1550 1548 1546 1544 1543 1540 1538 1536 1534 1532 1530 1528 1526
1578 1578 1578 1577 1577 1576 1576 1576 1576 1576 1576 1576 1575 1575 1575 1575 1574 1574 1574 1574 1574 1576 1577 1579 1583 1585 1584 1583 1582 1581 1579 1579 1578 1577 1577 1577 1576 1575 1575 1576 1577 1578 1580 1581 1581 1580 1579 1580 1581 1580 1577 1575 1574 1574 1574 1574 1574 1574 1573 1573 1571 1570 1569 1567 1566 1564 1562 1559 1558 1556 1555 1553 1551 1550 1548 1546 1544 1543 1541 1539 1537 1536 1534 1532 1530 1527 1525
1579 1578 1578 1578 1577 1577 1577 1577 1577 1577 1576 1576 1576 1576 1576 1575 1575 1576 1577 1577 1578 1579 1580 1582 1584 1585 1584 1584 1583 1582 1581 1581 1580 1579 1579 1578 1577 1576 1577 1577 1577 1578 1580 1580 1580 1579 1578 1579 1582 1581 1576 1573 1574 1574 1573 1573 1573 1572 1572 1571 1570 1568 1567 1566 1564 1563 1560 1558 1556 1555 1553 1552 1550 1548 1547 1545 1543 1542 1540 1538 1536 1535 1533 1531 1529 1526 1524
1579 1579 1578 1578 1578 1578 1577 1577 1577 1577 1577 1577 1576 1576 1577 1577 1579 1580 1581 1581 1582 1583 1584 1585 1586 1586 1585 1584 1584 1583 1582 1581 1581 1581 1580 1580 1578 1578 1578 1577 1577 1578 1581 1581 1580 1579 1578 1579 1581 1579 1573 1571 1572 1573 1572 1572 1572 1571 1570 1570 1568 1566 1565 1564 1562 1561 1559 1557 1556 1554 1553 1551 1550 1548 1546 1544 1542 1540 1539 1537 1535 1534 1532 1530 1528 1525 1523
1580 1579 1579 1579 1579 1578 1578 1578 1577 1577 1577 1577 1577 1579 1580 1581 1583 1584 1584 1585 1586 1588 1587 1587 1587 1586 1585 1585 1585 1584 1583 1582 1582 1581 1581 1580 1579 1578 1578 1578 1577 1578 1580 1580 1580 1580 1580 1579 1578 1575 1571 1570 1571 1571 1571 1571 1571 1570 1569 1568 1566 1565 1564 1562 1560 1559 1558 1556 1554 1553 1552 1550 1549 1547 1545 1543 1541 1539 1537 1536 1534 1533 1531 1528 1526 1524 1521
1580 1579 1579 1579 1579 1579 1578 1578 1578 1577 1578 1578 1579 1583 1586 1587 1586 1587 1588 1588 1589 1590 1589 1588 1588 1587 1586 1585 1584 1584 1583 1582 1582 1581 1581 1580 1579 1578 1578 1579 1578 1576 1576 1579 1580 1581 1579 1576 1573 1571 1570 1570 1570 1570 1570 1570 1570 1569 1567 1566 1564 1563 1562 1560 1559 1557 1556 1554 1553 1552 1550 1549 1547 1545 1544 1542 1540 1538 1536 1534 1533 1531 1530 1527 1525 1523 1520
1580 1580 1579 1579 1579 1579 1579 1579 1579 1580 1582 1584 1583 1585 1588 1590 1590 1591 1591 1591 1591 1591 1590 1589 1588 1587 1585 1585 1584 1584 1583 1582 1581 1581 1581 1580 1579 1579 1579 1578 1578 1577 1578 1580 1581 1578 1575 1572 1570 1569 1569 1569 1569 1569 1570 1569 1568 1567 1565 1564 1562 1561 1560 1558 1557 1555 1554 1552 1551 1550 1549 1548 1546 1544 1542 1540 1539 1537 1536 1534 1532 1530 1528 1526 1524 1522 1519
1581 1580 1579 1579 1580 1579 1579 1581 1582 1582 1586 1590 1590 1589 1590 1592 1592 1593 1592 1591 1591 1591 1590 1589 1588 1587 1586 1585 1584 1583 1583 1582 1582 1581 1580 1580 1580 1580 1578 1577 1578 1579 1579 1579 1579 1577 1575 1572 1570 1568 1568 1569 1569 1569 1569 1568 1567 1565 1563 1562 1561 1560 1558 1557 1555 1554 1552 1551 1550 1548 1547 1546 1545 1543 1541 1539 1537 1536 1534 1533 1531 1529 1527 1525 1523 1521 1518
1581 1581 1580 1580 1581 1581 1580 1583 1586 1587 1588 1592 1594 1593 1593 1593 1593 1593 1593 1591 1591 1591 1590 1588 1588 1587 1586 1585 1583 1583 1583 1583 1581 1581 1582 1581 1580 1580 1579 1578 1580 1581 1580 1579 1577 1575 1572 1570 1568 1567 1568 1568 1568 1567 1567 1567 1565 1564 1562 1560 1559 1558 1557 1555 1554 1552 1550 1549 1548 1547 1545 1544 1543 1542 1540 1538 1536 1534 1532 1531 1529 1527 1525 1523 1521 1519 1517
1582 1582 1581 1581 1584 1585 1585 1587 1590 1590 1591 1593 1593 1593 1593 1593 1593 1593 1592 1591 1590 1590 1589 1588 1587 1586 1585 1584 1584 1583 1583 1582 1581 1582 1583 1581 1579 1578 1580 1580 1580 1579 1577 1575 1572 1568 1566 1566 1567 1567 1567 1567 1567 1566 1566 1564 1563 1561 1560 1558 1557 1556 1554 1553 1551 1550 1548 1547 1546 1544 1543 1542 1541 1540 1538 1537 1535 1533 1531 1529 1527 1525 1523 1521 1519 1517 1515
1583 1583 1582 1582 1586 1589 1589 1590 1591 1591 1591 1592 1592 1592 1592 1592 1592 1591 1591 1590 1589 1589 1588 1587 1586 1585 1585 1585 1584 1583 1583 1583 1582 1582 1582 1581 1579 1580 1581 1580 1577 1576 1574 1570 1567 1566 1566 1566 1566 1566 1565 1565 1565 1565 1564 1562 1561 1559 1557 1556 1555 1553 1552 1550 1549 1548 1546 1545 1544 1543 1542 1540 1539 1538 1537 1535 1534 1532 1530 1528 1526 1524 1522 1520 1518 1516 1514
1583 1583 1583 1584 1588 1591 1590 1590 1591 1591 1591 1591 1591 1591 1591 1591 1591 1590 1590 1589 1588 1587 1586 1586 1585 1585 1584 1585 1584 1583 1583 1583 1581 1581 1582 1582 1579 1578 1577 1574 1574 1575 1574 1570 1566 1564 1565 1565 1564 1564 1564 1564 1564 1563 1562 1560 1559 1557 1555 1554 1553 1551 1550 1548 1547 1546 1544 1543 1542 1540 1539 1538 1537 1536 1535 1533 1532 1531 1529 1526 1524 1522 1520 1519 1517 1515 1512
1584 1584 1585 1587 1590 1591 1591 1590 1591 1591 1590 1590 1591 1591 1590 1590 1590 1589 1589 1588 1587 1586 1586 1585 1585 1584 1584 1584 1584 1583 1583 1582 1580 1581 1582 1580 1578 1577 1576 1573 1570 1569 1569 1567 1565 1564 1563 1563 1563 1563 1563 1562 1562 1561 1560 1558 1557 1555 1554 1552 1551 1549 1548 1547 1545 1544 1542 1541 1539 1538 1537 1536 1535 1534 1533 1531 1530 1529 1527 1525 1523 1521 1519 1517 1515 1513 1511
1585 1586 1586 1588 1588 1589 1590 1591 1590 1590 1590 1590 1590 1589 1589 1589 1589 1588 1588 1587 1586 1586 1585 1585 1584 1584 1584 1584 1583 1582 1581 1581 1581 1581 1578 1576 1578 1580 1578 1572 1568 1565 1564 1564 1564 1563 1562 1562 1562 1561 1561 1561 1560 1559 1558 1556 1555 1553 1552 1550 1549 1547 1546 1545 1543 1542 1540 1539 1538 1537 1535 1534 1533 1532 1531 1529 1528 1527 1526 1524 1522 1521 1518 1516 1514 1512 1510
1586 1586 1587 1588 1587 1588 1589 1589 1588 1588 1588 1588 1588 1588 1588 1588 1588 1587 1587 1586 1586 1585 1585 1584 1584 1585 1584 1582 1580 1579 1579 1581 1582 1581 1577 1576 1579 1579 1573 1566 1564 1564 1563 1562 1562 1561 1561 1560 1560 1560 1559 1559 1558 1557 1556 1555 1553 1552 1550 1548 1547 1546 1544 1543 1542 1540 1539 1537 1536 1535 1534 1533 1532 1530 1529 1528 1526 1526 1525 1523 1522 1520 1518 1515 1513 1511 1509
1586 1587 1587 1588 1588 1588 1588 1588 1587 1587 1587 1587 1587 1587 1587 1587 1587 1586 1586 1585 1585 1585 1584 1584 1585 1584 1582 1580 1580 1580 1580 1580 1579 1577 1574 1573 1574 1572 1567 1563 1562 1562 1561 1560 1560 1560 1559 1559 1558 1558 1557 1557 1556 1555 1554 1553 1551 1550 1548 1546 1545 1544 1543 1541 1540 1538 1537 1536 1535 1533 1532 1531 1530 1529 1528 1526 1525 1524 1523 1522 1520 1518 1516 1514 1512 1510 1508